Athens, TX

12:42 AM CDT on May 30, 2017 (GMT -0500)
Athens

Weather History for KF44 - November, 2012

Change the Weather History Date:

Friday, November 2, 2012

  Actual Average (KTYR) Record (KTYR)
Temperature  
Mean Temperature 68 °F -  
Max Temperature 83 °F 67 °F 87 °F (1955)
Min Temperature 53 °F 49 °F 26 °F (1963)
Cooling Degree Days 2    
Growing Degree Days 18 (Base 50)    
Moisture  
Dew Point 57 °F    
Average Humidity 71    
Maximum Humidity 95    
Minimum Humidity 36    
Precipitation  
Precipitation 0.00 in - - ()
Sea Level Pressure  
Sea Level Pressure 29.98 in    
Wind  
Wind Speed 2 mph ()    
Max Wind Speed 9 mph    
Max Gust Speed 16 mph    
Visibility 10.0 miles    
Events      
Averages and records for this station are not official NWS values.
T = Trace of Precipitation, MM = Missing Value Source: Averaged Metar Reports

Daily Weather History Graph

Daily Weather History Graph

Search for Another Location

Airport or City:

Trip Planner

Search our weather history database for the weather conditions in past years. The results will help you decide how hot, cold, wet, or windy it might be!

Date:

Astronomy

Nov. 02, 2012 Rise Set
Actual Time 7:41 AM CDT 6:31 PM CDT
Civil Twilight 7:16 AM CDT 6:57 PM CDT
Nautical Twilight 6:47 AM CDT 7:26 PM CDT
Astronomical Twilight 6:18 AM CDT 7:54 PM CDT
Moon 9:26 PM CDT (11/2) 10:55 AM CDT (11/2)
Length of Visible Light 11h 41m
Length of Day
10h 50m
Waning Gibbous, 87% of the Moon is Illuminated
Nov 2
Waning Gibbous
Nov 6
Last Quarter
Nov 13
New
Nov 20
First Quarter
Nov 28
Full

Hourly Weather History & Observations

Time (CDT) Temp. Heat Index Dew Point Humidity Pressure Visibility Wind Dir Wind Speed Gust Speed Precip Events Conditions
12:15 AM 62.2 °F - 55.4 °F 78% 29.96 in 10.0 mi Calm Calm - N/A   Clear
12:35 AM 62.1 °F - 55.8 °F 80% 29.96 in 10.0 mi Calm Calm - N/A   Clear
12:55 AM 61.0 °F - 55.4 °F 82% 29.96 in 10.0 mi Calm Calm - N/A   Clear
1:15 AM 59.9 °F - 54.9 °F 83% 29.96 in 10.0 mi Calm Calm - N/A   Clear
1:35 AM 58.6 °F - 54.3 °F 86% 29.96 in 10.0 mi Calm Calm - N/A   Clear
1:55 AM 57.7 °F - 54.5 °F 89% 29.96 in 10.0 mi Calm Calm - N/A   Clear
2:15 AM 57.9 °F - 54.7 °F 89% 29.96 in 10.0 mi Calm Calm - N/A   Clear
2:35 AM 58.8 °F - 55.0 °F 87% 29.96 in 10.0 mi SSW 3.5 mph - N/A   Clear
2:55 AM 65.1 °F - 57.2 °F 75% 29.96 in 10.0 mi SSW 3.5 mph - N/A   Clear
3:15 AM 66.9 °F - 57.4 °F 71% 29.96 in 10.0 mi Calm Calm - N/A   Clear
3:35 AM 65.1 °F - 57.0 °F 75% 29.96 in 10.0 mi Calm Calm - N/A   Clear
3:55 AM 58.1 °F - 54.7 °F 88% 29.96 in 10.0 mi Calm Calm - N/A   Clear
4:15 AM 56.7 °F - 54.0 °F 91% 29.96 in 10.0 mi Calm Calm - N/A   Clear
4:35 AM 56.3 °F - 53.8 °F 91% 29.97 in 10.0 mi Calm Calm - N/A   Clear
4:55 AM 56.1 °F - 53.6 °F 91% 29.97 in 10.0 mi Calm Calm - N/A   Clear
5:15 AM 54.9 °F - 52.5 °F 92% 29.98 in 10.0 mi Calm Calm - N/A   Clear
5:35 AM 54.1 °F - 52.7 °F 95% 29.98 in 10.0 mi Calm Calm - N/A   Clear
5:55 AM 54.3 °F - 52.9 °F 95% 29.98 in 10.0 mi Calm Calm - N/A   Clear
6:15 AM 53.4 °F - 51.8 °F 94% 29.98 in 10.0 mi Calm Calm - N/A   Clear
6:35 AM 53.1 °F - 51.4 °F 94% 29.98 in 10.0 mi Calm Calm - N/A   Clear
6:55 AM 53.8 °F - 51.4 °F 92% 29.98 in 10.0 mi Calm Calm - N/A   Clear
7:15 AM 54.0 °F - 51.6 °F 92% 29.99 in 10.0 mi Calm Calm - N/A   Clear
7:35 AM 53.6 °F - 51.1 °F 91% 29.99 in 10.0 mi Calm Calm - N/A   Clear
7:55 AM 53.6 °F - 51.4 °F 92% 29.99 in 10.0 mi Calm Calm - N/A   Clear
8:15 AM 54.3 °F - 52.7 °F 94% 30.00 in 10.0 mi Calm Calm - N/A   Clear
8:35 AM 55.6 °F - 53.8 °F 94% 30.01 in 10.0 mi Calm Calm - N/A   Clear
8:55 AM 57.7 °F - 55.8 °F 93% 30.01 in 10.0 mi Calm Calm - N/A   Clear
9:15 AM 61.7 °F - 59.0 °F 91% 30.01 in 10.0 mi Calm Calm - N/A   Clear
9:35 AM 65.5 °F - 61.3 °F 86% 30.02 in 10.0 mi Calm Calm - N/A   Clear
9:55 AM 68.2 °F - 61.9 °F 80% 30.03 in 10.0 mi SW 5.8 mph - N/A   Clear
10:15 AM 70.0 °F - 62.2 °F 76% 30.03 in 10.0 mi SW 6.9 mph - N/A   Clear
10:35 AM 71.6 °F - 62.1 °F 72% 30.03 in 10.0 mi SW 4.6 mph - N/A   Clear
10:55 AM 72.9 °F - 62.1 °F 69% 30.03 in 10.0 mi SSW 4.6 mph - N/A   Clear
11:15 AM 74.1 °F - 62.1 °F 66% 30.03 in 10.0 mi SW 3.5 mph - N/A   Clear
11:35 AM 75.4 °F - 62.2 °F 64% 30.03 in 10.0 mi SW 5.8 mph - N/A   Clear
11:55 AM 77.0 °F - 61.7 °F 59% 30.03 in 10.0 mi SSW 8.1 mph - N/A   Clear
12:15 PM 78.1 °F - 60.3 °F 54% 30.02 in 10.0 mi SW 4.6 mph - N/A   Clear
12:35 PM 78.8 °F - 60.3 °F 53% 30.01 in 10.0 mi SW 4.6 mph - N/A   Clear
12:55 PM 79.5 °F - 60.4 °F 52% 30.00 in 10.0 mi SSW 8.1 mph - N/A   Clear
1:15 PM 80.4 °F 81.1 °F 59.7 °F 49% 30.00 in 10.0 mi SW 5.8 mph - N/A   Clear
1:35 PM 80.8 °F 81.0 °F 57.4 °F 45% 29.99 in 10.0 mi SSW 9.2 mph 16.1 mph N/A   Clear
1:55 PM 81.1 °F 81.2 °F 57.4 °F 44% 29.98 in 10.0 mi WSW 4.6 mph - N/A   Clear
2:15 PM 81.7 °F 81.6 °F 57.9 °F 44% 29.97 in 10.0 mi South 9.2 mph - N/A   Clear
2:35 PM 81.9 °F 81.7 °F 57.2 °F 43% 29.96 in 10.0 mi SSW 5.8 mph - N/A   Clear
2:55 PM 82.4 °F 82.0 °F 57.0 °F 42% 29.96 in 10.0 mi SSW 4.6 mph - N/A   Clear
3:15 PM 82.0 °F 81.8 °F 57.6 °F 43% 29.95 in 10.0 mi South 4.6 mph - N/A   Clear
3:35 PM 82.6 °F 82.1 °F 56.8 °F 41% 29.95 in 10.0 mi South 4.6 mph - N/A   Clear
3:55 PM 82.8 °F 82.2 °F 56.8 °F 41% 29.94 in 10.0 mi South 4.6 mph - N/A   Clear
4:15 PM 82.6 °F 81.8 °F 55.0 °F 39% 29.94 in 10.0 mi SSW 6.9 mph - N/A   Clear
4:35 PM 82.8 °F 81.6 °F 53.1 °F 36% 29.94 in 10.0 mi South 5.8 mph - N/A   Clear
4:55 PM 82.4 °F 81.6 °F 54.7 °F 38% 29.94 in 10.0 mi South 8.1 mph - N/A   Clear
5:15 PM 81.7 °F 81.4 °F 56.3 °F 42% 29.94 in 10.0 mi South 6.9 mph - N/A   Clear
5:35 PM 80.8 °F 80.9 °F 56.8 °F 44% 29.94 in 10.0 mi South 3.5 mph - N/A   Clear
5:55 PM 79.5 °F - 56.8 °F 46% 29.94 in 10.0 mi South 5.8 mph - N/A   Clear
6:15 PM 78.1 °F - 55.9 °F 46% 29.94 in 10.0 mi South 4.6 mph - N/A   Clear
6:35 PM 76.6 °F - 55.6 °F 48% 29.94 in 10.0 mi South 3.5 mph - N/A   Clear
6:55 PM 73.8 °F - 56.3 °F 54% 29.94 in 10.0 mi Calm Calm - N/A   Clear
7:15 PM 70.7 °F - 56.8 °F 61% 29.95 in 10.0 mi Calm Calm - N/A   Clear
7:35 PM 68.4 °F - 57.4 °F 68% 29.95 in 10.0 mi Calm Calm - N/A   Clear
7:55 PM 67.5 °F - 57.4 °F 70% 29.96 in 10.0 mi Calm Calm - N/A   Clear
8:15 PM 66.9 °F - 58.3 °F 74% 29.96 in 10.0 mi SSE 3.5 mph - N/A   Clear
8:35 PM 67.5 °F - 59.5 °F 76% 29.96 in 10.0 mi SSE 4.6 mph - N/A   Clear
8:55 PM 67.3 °F - 59.9 °F 77% 29.96 in 10.0 mi SSE 4.6 mph - N/A   Clear
9:15 PM 67.1 °F - 59.9 °F 78% 29.96 in 10.0 mi SSE 4.6 mph - N/A   Clear
9:35 PM 67.3 °F - 59.7 °F 77% 29.97 in 10.0 mi SSE 3.5 mph - N/A   Clear
9:55 PM 65.8 °F - 59.0 °F 79% 29.97 in 10.0 mi SSE 3.5 mph - N/A   Clear
10:15 PM 64.2 °F - 58.5 °F 82% 29.98 in 10.0 mi Calm Calm - N/A   Clear
10:35 PM 64.8 °F - 58.6 °F 81% 29.98 in 10.0 mi Calm Calm - N/A   Clear
10:55 PM 64.2 °F - 57.9 °F 80% 29.98 in 10.0 mi Calm Calm - N/A   Clear
11:15 PM 63.3 °F - 57.6 °F 81% 29.98 in 10.0 mi Calm Calm - N/A   Clear
11:35 PM 63.9 °F - 57.9 °F 81% 29.99 in 10.0 mi South 3.5 mph - N/A   Clear
11:55 PM 67.6 °F - 59.2 °F 74% 29.99 in 10.0 mi South 4.6 mph - N/A   Clear